Airport METAR Information

LTBA 171950Z 03008KT 360V140 9999 FEW015 SCT035 19/16 Q1018 NOSIG

VATSIM Livefeed

Card image cap

ATC Bookings

No position booked

Card image cap

Active ATC

No controllers online

Blog

Read our latest news and get to know us better.